Location: Burzi?i
(45.0869°N, 16.0577°E)
Time: 11:45:03
(UTC+00:00)

SMAP - Pass Details

Date: 29 October 2020
Orbit: 681 x 683 km, 98.1° (Epoch: 28 November)

Event Time Altitude Azimuth Distance (km) Brightness Sun altitude
Rises 16:21:51 0° 168° (SSE) 3,032 6.4 -6.6°
Reaches altitude 10° 16:24:05 10° 170° (S) 2,121 5.6 -7.0°
Maximum altitude 16:28:43 78° 257° (WSW) 702 3.3 -7.8°
Drops below altitude 10° 16:33:24 10° 344° (NNW) 2,137 5.7 -8.6°
Sets 16:35:40 0° 346° (NNW) 3,056 6.5 -9.0°
